Vorticity
-13 2 15 13 18 11 6 14 -4 4 2 17 -0 -1 -10 5 -1 17 6 5 6 7 8 8 6 6 5 6 7 8 9 6 5 -8 27 5 20 7 27 9 16 19 10 4 4 1 9 7 8
2 10 9 6 17 4 9 -1 4 5 16 -1 12 12 9 5 16 34 4 3 5 6 9 7 7 5 5 5 7 9 8 7 4 -10 5 17 19 -8 26 -3 8 -4 3 2 3 8 10 9 7
9 16 -2 23 -7 3 9 8 4 7 1 6 32 23 16 27 4 5 7 5 6 7 7 7 4 5 6 7 7 8 6 6 7 0 -2 -16 18 26 24 4 17 5 9 13 9 5 5 5 7
-5 14 14 16 13 12 8 4 0 9 6 -6 6 11 7 18 21 6 4 5 6 6 5 5 5 4 4 4 6 6 8 8 7 6 3 2 3 -2 -0 8 24 -8 4 5 6 6 8 6 4
10 10 12 9 0 -5 12 6 9 13 2 15 12 3 11 9 -3 7 6 5 6 6 5 5 5 5 6 6 6 6 6 8 7 5 3 4 -6 11 3 6 5 -0 5 6 6 5 4 4 4
-11 18 8 1 2 7 3 -1 1 11 9 17 23 1 2 -1 10 6 8 8 7 8 6 6 5 6 6 5 4 5 4 6 5 4 5 7 2 5 6 5 5 14 6 6 4 4 4 6 6
18 10 3 6 -0 9 5 4 5 3 5 9 19 13 2 3 5 4 7 5 7 6 7 8 6 6 5 5 6 5 4 4 4 5 6 5 6 3 3 4 -1 -3 5 5 5 5 4 5 6
21 4 3 -2 -2 3 4 7 6 1 10 16 -6 12 4 5 3 2 7 7 3 7 5 6 7 7 6 5 5 6 5 5 5 4 4 5 3 1 5 7 3 7 5 3 5 4 4 4 4
10 7 3 -3 -9 3 11 -6 8 3 11 -2 15 21 1 5 4 9 5 3 8 9 13 6 5 7 6 7 6 5 5 5 5 5 5 4 4 3 3 4 6 3 4 2 6 6 4 3 4
25 7 7 10 10 4 8 7 12 9 -0 4 10 7 3 -2 -3 -1 6 6 13 4 1 7 12 7 5 6 7 6 6 5 5 4 4 3 4 4 3 2 2 3 4 4 3 2 2 3 3
16 9 -1 5 11 4 7 2 13 14 11 8 4 20 7 -1 2 10 14 18 10 7 6 6 10 16 8 5 6 6 7 6 8 6 5 5 5 3 4 4 4 4 4 4 4 4 4 3 4
18 -8 13 5 15 2 8 5 15 0 12 15 1 5 21 8 14 16 5 10 12 8 9 10 8 9 15 15 5 4 6 7 5 7 4 6 11 5 6 6 6 6 5 6 7 5 6 6 5
4 9 3 -5 11 10 11 3 -3 6 17 9 0 16 13 10 5 4 1 1 17 6 7 4 7 11 1 14 7 20 8 10 7 9 6 10 5 6 8 7 8 6 7 2 7 7 9 11 12
5 8 5 -2 1 4 -4 15 4 5 6 13 22 19 2 1 -1 -8 5 -1 13 16 5 5 7 7 14 9 2 2 16 10 6 7 8 9 8 9 5 10 -1 6 5 9 10 11 6 7 7
13 7 -2 8 -1 5 -4 11 4 1 3 17 8 3 5 2 -0 -3 -3 -2 13 15 5 5 3 10 13 5 17 3 13 12 9 8 9 7 6 7 4 4 6 8 7 6 2 4 6 7 5
19 3 16 17 1 6 16 13 6 5 7 -2 9 3 6 2 6 2 0 -6 -5 3 10 5 13 4 9 12 4 19 4 8 10 7 8 8 11 5 8 9 8 11 9 11 9 7 10 6 5
17 -2 36 6 8 9 -3 6 6 5 7 5 -3 2 12 10 6 8 4 -3 7 4 2 5 6 8 8 13 9 5 10 7 5 6 7 8 10 13 11 8 10 11 13 9 6 8 5 5 7
3 -4 -8 18 -1 -3 5 17 5 -3 15 1 8 3 0 2 -3 10 9 2 8 0 4 7 3 8 6 4 17 10 12 6 8 11 8 7 9 5 6 6 7 7 6 7 5 8 3 7 6
3 4 -3 -3 6 -8 10 12 11 11 3 -1 11 12 2 10 4 3 5 1 9 -0 1 7 6 5 2 -1 16 16 5 15 8 7 5 5 3 3 3 3 9 7 3 4 7 5 6 9 6
5 9 17 2 19 -11 9 17 16 8 4 0 -1 1 -5 13 21 8 5 11 7 2 9 3 17 9 3 2 8 4 14 3 3 3 6 5 2 5 16 8 6 9 7 3 4 6 7 5 6
7 5 20 4 12 -1 19 2 17 10 28 23 4 3 -8 -6 2 26 9 7 11 6 6 4 4 14 9 7 4 8 5 10 4 1 7 12 6 4 6 7 7 9 9 5 11 11 8 5 5
-6 20 8 10 8 -10 15 -6 34 6 1 10 15 3 19 17 6 6 15 20 23 27 6 5 6 14 10 10 8 3 10 7 5 17 8 12 -2 3 2 5 5 6 5 6 3 7 9 15 7
1 24 2 16 25 5 21 11 2 39 4 -5 23 11 9 6 7 3 7 4 12 10 17 3 -3 10 12 8 8 9 11 9 7 2 2 6 5 5 5 3 2 9 9 8 9 7 9 11 6
7 8 16 8 4 6 9 6 2 7 12 11 4 4 0 8 13 3 -0 5 5 11 4 10 18 3 17 15 6 10 11 16 8 3 4 4 4 4 6 10 15 16 13 13 13 11 8 8 10
16 9 3 7 8 -5 5 19 2 14 7 5 5 8 3 15 21 24 2 9 5 11 13 7 13 12 16 9 14 9 8 6 6 4 3 5 7 11 15 16 15 14 13 15 16 13 9 9 8
17 19 -28 10 7 -1 13 10 13 4 -0 8 10 13 11 4 5 17 16 4 8 8 10 9 12 12 18 21 11 7 8 6 5 6 6 9 13 17 17 16 14 13 13 12 17 11 11 6 12
10 -1 18 10 9 10 7 14 3 18 2 16 10 3 24 5 14 19 16 11 5 10 13 9 9 20 12 7 8 7 5 5 6 4 8 14 17 17 16 16 16 15 15 14 12 10 12 10 8
-6 25 -6 13 3 9 15 15 -20 13 26 -15 16 25 8 18 19 12 17 15 9 6 8 7 10 15 16 12 11 7 6 6 6 8 11 10 5 4 4 4 5 7 10 13 13 13 13 13 12
8 5 -3 13 -1 9 4 0 34 24 8 2 -2 17 3 13 -0 10 8 12 11 7 8 7 4 13 14 14 12 9 5 5 7 8 6 0 2 2 4 5 6 6 6 6 5 7 10 12 14
1 30 4 -5 9 1 4 9 30 8 9 7 22 -2 -1 -6 20 -9 6 11 14 15 9 7 7 11 9 8 7 7 4 3 4 5 5 5 1 1 3 2 4 7 5 7 7 6 5 6 6
Height
3152 3151 3150 3150 3153 3150 3148 3150 3149 3149 3149 3150 3151 3151 3151 3149 3149 3154 3152 3153 3153 3154 3156 3157 3158 3158 3159 3159 3159 3159 3158 3157 3158 3157 3153 3152 3152 3151 3152 3155 3155 3158 3161 3164 3168 3172 3175 3177 3178
3153 3153 3153 3151 3152 3150 3151 3150 3150 3150 3150 3151 3152 3152 3151 3150 3149 3151 3153 3153 3154 3156 3158 3159 3160 3161 3161 3162 3162 3161 3160 3161 3161 3161 3159 3157 3156 3155 3155 3158 3160 3160 3164 3168 3171 3174 3177 3178 3179
3156 3155 3154 3153 3153 3152 3152 3152 3150 3151 3152 3153 3151 3152 3152 3152 3153 3154 3156 3156 3157 3159 3160 3161 3162 3163 3164 3165 3164 3164 3164 3164 3165 3165 3164 3163 3162 3161 3161 3163 3163 3164 3169 3170 3173 3177 3179 3181 3183
3156 3158 3158 3157 3156 3155 3154 3153 3153 3152 3154 3154 3154 3153 3153 3155 3157 3157 3158 3159 3160 3162 3162 3163 3164 3166 3167 3167 3167 3167 3167 3167 3168 3168 3168 3168 3169 3170 3170 3169 3169 3170 3174 3177 3179 3181 3183 3185 3186
3160 3160 3159 3158 3158 3156 3155 3155 3155 3156 3156 3155 3155 3155 3155 3157 3160 3160 3160 3161 3163 3164 3165 3166 3167 3168 3169 3170 3171 3171 3170 3170 3171 3172 3172 3173 3173 3174 3175 3177 3178 3179 3179 3181 3183 3185 3186 3188 3189
3163 3162 3161 3160 3159 3158 3158 3158 3158 3158 3158 3157 3158 3156 3157 3161 3163 3163 3163 3164 3165 3167 3168 3169 3169 3170 3171 3172 3173 3174 3174 3173 3174 3175 3175 3176 3177 3177 3178 3180 3182 3183 3184 3185 3186 3188 3189 3190 3191
3164 3163 3162 3162 3161 3161 3160 3160 3162 3161 3161 3160 3161 3160 3160 3163 3165 3166 3166 3167 3168 3168 3170 3171 3172 3172 3173 3174 3175 3176 3176 3177 3177 3178 3179 3179 3180 3181 3182 3184 3185 3186 3185 3186 3189 3190 3192 3192 3193
3165 3165 3164 3164 3163 3162 3162 3163 3164 3164 3163 3163 3164 3164 3161 3164 3166 3167 3167 3168 3169 3170 3171 3172 3174 3174 3174 3175 3176 3177 3179 3180 3180 3181 3182 3182 3183 3184 3185 3187 3188 3190 3190 3192 3191 3193 3194 3194 3196
3167 3167 3166 3166 3165 3163 3162 3163 3164 3164 3164 3165 3165 3166 3165 3165 3167 3169 3170 3170 3171 3172 3172 3174 3175 3175 3175 3176 3177 3178 3180 3181 3182 3183 3185 3185 3185 3185 3187 3188 3189 3190 3192 3193 3193 3194 3195 3196 3197
3169 3169 3170 3169 3169 3166 3165 3165 3163 3164 3164 3165 3166 3167 3167 3168 3170 3171 3173 3173 3174 3174 3174 3175 3175 3176 3176 3177 3178 3179 3181 3182 3183 3184 3185 3186 3187 3188 3188 3189 3191 3192 3194 3195 3194 3196 3196 3196 3197
3172 3172 3171 3169 3169 3169 3167 3167 3166 3165 3166 3166 3167 3168 3169 3170 3172 3174 3175 3175 3177 3176 3176 3176 3176 3176 3177 3178 3179 3180 3181 3183 3184 3184 3186 3187 3187 3189 3190 3190 3192 3194 3195 3196 3196 3197 3197 3197 3197
3174 3173 3171 3170 3170 3170 3170 3169 3170 3169 3169 3168 3169 3171 3171 3173 3175 3177 3178 3179 3179 3179 3178 3178 3178 3177 3177 3178 3180 3181 3182 3183 3185 3185 3186 3187 3188 3189 3190 3192 3193 3194 3194 3196 3197 3197 3198 3198 3198
3175 3173 3173 3172 3170 3170 3170 3170 3172 3172 3171 3170 3171 3172 3173 3174 3177 3179 3180 3181 3181 3181 3181 3179 3179 3179 3179 3180 3181 3181 3183 3184 3185 3186 3186 3188 3188 3189 3191 3193 3193 3194 3194 3194 3196 3196 3197 3197 3196
3175 3174 3174 3172 3171 3171 3172 3172 3173 3175 3175 3173 3173 3174 3176 3176 3177 3179 3181 3182 3183 3183 3183 3182 3181 3180 3180 3181 3182 3182 3183 3185 3186 3187 3187 3187 3188 3189 3190 3192 3194 3194 3194 3194 3195 3196 3195 3195 3196
3174 3174 3174 3174 3173 3172 3171 3172 3172 3174 3176 3176 3175 3176 3176 3177 3177 3178 3180 3182 3184 3185 3184 3184 3183 3183 3182 3182 3182 3182 3183 3184 3186 3187 3187 3188 3189 3189 3190 3191 3192 3193 3194 3194 3195 3195 3195 3195 3195
3176 3176 3175 3174 3173 3174 3172 3170 3170 3172 3173 3176 3176 3176 3176 3176 3177 3179 3180 3183 3186 3186 3185 3185 3185 3184 3184 3183 3183 3184 3184 3185 3185 3186 3187 3188 3189 3190 3190 3190 3191 3192 3193 3193 3194 3194 3195 3196 3196
3177 3178 3175 3175 3174 3175 3173 3170 3169 3169 3170 3174 3176 3175 3176 3178 3178 3179 3180 3183 3185 3186 3186 3186 3186 3186 3186 3185 3184 3184 3185 3184 3185 3185 3186 3188 3188 3189 3189 3190 3190 3192 3192 3193 3193 3193 3194 3195 3195
3176 3177 3176 3175 3175 3173 3173 3170 3168 3167 3169 3171 3175 3176 3176 3178 3178 3179 3180 3182 3184 3185 3185 3186 3186 3187 3187 3187 3185 3185 3185 3186 3185 3186 3187 3188 3189 3189 3190 3191 3192 3192 3192 3192 3192 3193 3191 3193 3194
3176 3178 3176 3176 3175 3172 3170 3169 3168 3168 3169 3170 3173 3175 3176 3177 3179 3180 3181 3182 3183 3184 3184 3185 3186 3186 3186 3186 3186 3186 3186 3186 3186 3186 3187 3187 3187 3189 3189 3189 3190 3191 3190 3190 3191 3191 3191 3192 3193
3176 3176 3176 3175 3173 3171 3168 3167 3170 3168 3168 3170 3171 3174 3175 3176 3176 3177 3179 3180 3181 3183 3184 3184 3184 3185 3185 3185 3186 3186 3187 3187 3187 3187 3186 3187 3188 3188 3189 3188 3188 3190 3189 3189 3190 3190 3189 3190 3190
3175 3176 3175 3173 3171 3169 3168 3166 3165 3166 3164 3166 3167 3170 3172 3175 3176 3175 3177 3177 3180 3180 3183 3183 3183 3183 3183 3183 3184 3185 3187 3188 3188 3188 3188 3187 3188 3188 3188 3188 3188 3188 3188 3188 3187 3188 3188 3188 3188
3175 3175 3174 3171 3170 3169 3169 3167 3162 3163 3163 3163 3165 3166 3168 3172 3174 3174 3174 3174 3177 3178 3182 3181 3181 3181 3181 3182 3182 3185 3186 3188 3188 3188 3188 3188 3188 3188 3188 3188 3188 3188 3187 3186 3185 3185 3184 3185 3185
3175 3176 3175 3173 3171 3171 3169 3169 3162 3161 3162 3164 3164 3165 3168 3170 3172 3172 3173 3173 3176 3177 3179 3180 3179 3180 3180 3181 3182 3184 3186 3187 3188 3188 3189 3189 3188 3187 3187 3187 3185 3185 3184 3183 3182 3182 3182 3183 3183
3176 3176 3175 3173 3173 3171 3168 3169 3164 3164 3163 3162 3162 3164 3165 3168 3170 3171 3172 3173 3174 3176 3177 3178 3179 3180 3179 3181 3182 3185 3186 3188 3189 3189 3189 3189 3187 3187 3185 3184 3183 3182 3180 3180 3180 3180 3180 3181 3180
3172 3176 3175 3174 3173 3171 3167 3167 3164 3165 3164 3164 3164 3164 3165 3166 3167 3168 3168 3171 3173 3174 3175 3176 3176 3178 3180 3181 3182 3184 3185 3187 3188 3188 3188 3189 3188 3186 3184 3182 3180 3179 3178 3178 3177 3178 3179 3179 3178
3168 3172 3172 3174 3176 3170 3167 3165 3164 3164 3164 3165 3165 3166 3165 3166 3166 3167 3167 3169 3172 3174 3175 3176 3177 3177 3178 3180 3181 3183 3185 3187 3187 3187 3188 3187 3185 3183 3181 3180 3178 3177 3176 3176 3176 3176 3176 3177 3176
3170 3172 3173 3170 3172 3171 3167 3163 3162 3162 3164 3164 3165 3166 3166 3166 3166 3167 3168 3170 3172 3173 3174 3175 3176 3176 3177 3179 3180 3181 3183 3185 3186 3186 3186 3185 3184 3182 3180 3179 3178 3177 3176 3176 3175 3175 3175 3174 3174
3166 3168 3168 3169 3173 3174 3165 3164 3161 3161 3162 3163 3164 3166 3167 3166 3166 3165 3166 3168 3170 3171 3171 3172 3174 3174 3175 3176 3178 3179 3181 3183 3184 3185 3185 3185 3184 3183 3182 3180 3179 3177 3176 3176 3175 3174 3174 3173 3172
3163 3163 3165 3166 3165 3165 3168 3162 3159 3161 3162 3163 3165 3166 3166 3166 3166 3165 3165 3167 3168 3167 3168 3169 3170 3171 3172 3174 3176 3177 3179 3181 3182 3183 3183 3183 3183 3182 3181 3179 3178 3177 3176 3175 3174 3173 3172 3171 3170
3158 3160 3161 3161 3163 3161 3161 3160 3156 3159 3160 3162 3162 3164 3165 3165 3165 3164 3163 3165 3166 3166 3166 3169 3170 3170 3172 3173 3173 3174 3176 3176 3177 3178 3179 3180 3180 3180 3179 3178 3177 3176 3175 3174 3172 3171 3170 3168 3167